Погода в Киевке

Казахстан     50°15′42″N   71°32′53″E
темп.,
°C
ветер,
м/с
пор.,
м/с
влажн.,
%
обл.,
%
осадки,
мм/ч
давл.,
гПа
погр.,
м
2 марта, вт
вт200:00−13з449682 0.0 101862
03:00−13зюз3496100 0.0 101966
06:00−14зюз2396100 0.1 101927
09:00−14зюз2396100 0.0 101975
12:00−11зюз3491100 0.1 1018312
15:00−9зюз4691100 0.1 1017440
18:00−10зюз4893100 0.1 1018418
21:00−15зюз499597 0.1 1021207
3 марта, ср
ср300:00−17зюз499794 0.1 1023210
03:00−17юз5995100 0.1 1023304
06:00−18юз5109698 0.1 1024238
09:00−19юз5119677 0.0 1025228
12:00−14юз7108952 0.0 1024341
15:00−11ююз812860 0.0 1023438
18:00−10ююз7129130 0.0 1023426
21:00−10ююз81591100 0.0 1023365
4 марта, чт
чт400:00−9ююз81692100 0.0 1022386
03:00−7ююз91890100 0.0 1021461
06:00−9ююз91786100 0.0 1021369
09:00−9ююз91784100 0.0 1019366
12:00−5ююз10168493 0.0 1018619
15:00−2ююз101786100 0.0 1016809
18:00−2ююз91687100 0.0 1014695
21:00−2ююз91596100 0.5 1014707
5 марта, пт
пт500:00−2юз71396100 1.4 1014675
03:00−6зюз5129399 0.2 1015360
06:00−10з7129488 0.2 1020312
09:00−13зюз6139496 0.0 1025278
12:00−10юз7128874 0.0 1027381
15:00−7юз915830 0.0 1027549
18:00−7ююз815830 0.0 1027513
21:00−10ююз8168760 0.0 1027393
6 марта, сб
сб600:00−10ююз8178830 0.0 1027358
03:00−10юз817893 0.0 1026387
06:00−11ююз7149234 0.0 1025301
09:00−11ююз7139013 0.0 1025277
12:00−8юз8128915 0.0 1024373
15:00−5юз610870 0.0 1023372
18:00−7юз45910 0.0 102378
21:00−10ююз45900 0.0 102356